TimeEDT,TemperatureF,Dew PointF,Humidity,Sea Level PressureIn,VisibilityMPH,Wind Direction,Wind SpeedMPH,Gust SpeedMPH,PrecipitationIn,Events,Conditions,WindDirDegrees,DateUTC
12:51 AM,57.9,57.0,97,29.88,-9999.0,ENE,3.5,-,N/A,,Unknown,70,2013-09-11 04:51:00
1:51 AM,57.9,57.0,97,29.88,-9999.0,ENE,3.5,-,N/A,,Unknown,70,2013-09-11 05:51:00
2:51 AM,57.9,57.0,97,29.88,-9999.0,Calm,Calm,-,N/A,,Unknown,0,2013-09-11 06:51:00
3:51 AM,57.0,57.0,100,29.89,-9999.0,Calm,Calm,-,N/A,,Unknown,0,2013-09-11 07:51:00
4:51 AM,57.0,57.0,100,29.90,-9999.0,Calm,Calm,-,N/A,,Unknown,0,2013-09-11 08:51:00
5:51 AM,57.9,55.9,93,29.90,-9999.0,Calm,Calm,-,N/A,,Unknown,0,2013-09-11 09:51:00
6:51 AM,59.0,57.9,96,29.89,-9999.0,Calm,Calm,-,N/A,,Unknown,0,2013-09-11 10:51:00
7:51 AM,57.9,57.0,97,29.89,-9999.0,Calm,Calm,-,N/A,,Unknown,0,2013-09-11 11:51:00
8:51 AM,62.1,57.9,86,29.89,-9999.0,Variable,4.6,-,N/A,,Unknown,0,2013-09-11 12:51:00
9:51 AM,64.0,60.1,87,29.87,-9999.0,WSW,8.1,-,N/A,,Unknown,250,2013-09-11 13:51:00
10:51 AM,66.9,61.0,81,29.88,-9999.0,Variable,4.6,-,N/A,,Unknown,0,2013-09-11 14:51:00
11:51 AM,69.1,62.1,78,29.87,-9999.0,Calm,Calm,-,N/A,,Unknown,0,2013-09-11 15:51:00
12:51 PM,75.0,57.9,55,29.85,-9999.0,Variable,3.5,-,N/A,,Unknown,0,2013-09-11 16:51:00
1:51 PM,77.0,57.9,52,29.86,-9999.0,NNW,8.1,-,N/A,,Unknown,330,2013-09-11 17:51:00
2:51 PM,69.1,60.1,73,29.87,-9999.0,North,19.6,27.6,N/A,,Unknown,350,2013-09-11 18:51:00
3:51 PM,66.9,61.0,81,29.87,-9999.0,North,15.0,19.6,N/A,,Unknown,350,2013-09-11 19:51:00
4:51 PM,66.0,61.0,84,29.88,-9999.0,North,17.3,24.2,N/A,,Unknown,350,2013-09-11 20:51:00
5:51 PM,66.9,60.1,79,29.89,-9999.0,NNW,11.5,-,N/A,,Unknown,340,2013-09-11 21:51:00
6:51 PM,66.0,57.9,75,29.90,-9999.0,NNW,8.1,-,N/A,,Unknown,330,2013-09-11 22:51:00
7:51 PM,64.9,57.9,78,29.91,-9999.0,Calm,Calm,-,N/A,,Unknown,0,2013-09-11 23:51:00
8:51 PM,63.0,59.0,87,29.90,-9999.0,WNW,5.8,-,N/A,,Unknown,290,2013-09-12 00:51:00
9:51 PM,62.1,57.0,84,29.91,-9999.0,NNW,5.8,-,N/A,,Unknown,330,2013-09-12 01:51:00
10:51 PM,64.0,55.0,73,29.91,-9999.0,NNW,11.5,17.3,N/A,,Unknown,340,2013-09-12 02:51:00
11:51 PM,61.0,55.9,83,29.93,-9999.0,North,10.4,-,N/A,,Unknown,360,2013-09-12 03:51:00